Zurück zum Katalog

USA 357

AktivMilitärVLEO
NORAD 59817·PAYLOAD·🇺🇸 United States

Gestartet May 22, 2024 von Vandenberg Space Force Base

Loading…

Nächste Überflüge (nächste 24 Stunden)

TLE

VeraltetSource: Mike McCants

Epoche: Aug 15, 2026, 22:37 UTC

1 59817U 24096D   26227.94287861 0.00000000  00000-0  00000-0 0    08
2 59817  70.0211 161.8170 0004000 332.4499  27.5500 14.96713793    04

Verfolge USA 357 in Echtzeit mit AllMySat

Download on the App Store